Home > Weather > Esfahãn > Past weeks

Flag for Iran Past Weather in Esfahãn, Iran — Yesterday and Last 2 Weeks

Now
73 °F

Clear.


Feels Like: 77 °F
Forecast: 67 / 98 °F
Wind: 9 mph from Northwest

Location: Esfahan

Current Time: Jul 30, 2016 at 4:18:10 AM

Latest Report: Jul 30, 2016 at 3:30 AM


Visibility: 5 mi

Pressure: 29.86 "Hg (24.89 "Hg at 1576m altitude)

Humidity: 36%

Dew Point: 45 °F

Location of EsfahãnLocation

Past Weather in Esfahãn — Graph

°F

Esfahãn Temperature Yesterday

Maximum temperature yesterday: 102 °F (at 4:30 PM)
Minimum temperature yesterday: 72 °F (at 4:00 AM)
Average temperature yesterday: 87 °F

High & Low Weather Summary for the Past Weeks

 TemperatureHumidityPressure
High104 °F (Jul 25, 4:00 PM)44% (Jul 15, 5:00 AM)30.07 "Hg (Jul 15, 5:00 AM)
Low59 °F (Jul 16, 7:00 AM)5% (Jul 16, 4:30 PM)29.74 "Hg (Jul 24, 6:00 PM)
Average87 °F16%29.91 "Hg
* Reported Jul 15 2:30 AM — Jul 30 3:00 AM, Esfahãn, Weather by CustomWeather, © 2016

Note: Actual official high and low records may vary slightly from our data, if they occured in-between our weather recording intervals... More about our weather records

Advertising

Esfahãn Weather History for the Previous 24 Hours

Scroll right to see more
 ConditionsComfort  
Time TempWeatherWind HumidityBarometerVisibility
3:00 AM
Sat, Jul 30
75 °FClear.9 mph34%29.86 "Hg5 mi
2:30 AM75 °FHaze.12 mph34%29.86 "Hg3 mi
2:00 AM75 °FHaze.9 mph36%29.86 "Hg3 mi
1:30 AM77 °FHaze.7 mph32%29.89 "Hg3 mi
1:00 AM79 °FHaze.5 mph28%29.89 "Hg3 mi
12:30 AM82 °FClear.5 mph28%29.89 "Hg4 mi
12:00 AM84 °FClear.18 mph27%29.89 "Hg4 mi
11:30 PM
Fri, Jul 29
84 °FClear.14 mph25%29.86 "Hg4 mi
11:00 PM86 °FClear.16 mph25%29.86 "Hg10 mi
10:30 PM88 °FClear.22 mph24%29.86 "Hg10 mi
10:00 PM88 °FClear.21 mph22%29.83 "Hg10 mi
9:30 PM88 °FSunny.18 mph22%29.83 "Hg10 mi
9:00 PM90 °FClear.21 mph20%29.80 "Hg5 mi
8:30 PM90 °FSandstorm.21 mph20%29.80 "Hg3 mi
8:00 PM91 °FSandstorm.22 mph18%29.80 "Hg2 mi
7:30 PM93 °FSandstorm.22 mph17%29.77 "Hg2 mi
7:00 PM95 °FSandstorm.22 mph16%29.74 "Hg2 mi
6:30 PM99 °FPassing clouds.18 mph15%29.74 "Hg4 mi
6:00 PM102 °FPassing clouds.9 mph10%29.74 "HgN/A
5:30 PM102 °FPassing clouds.16 mph10%29.74 "HgN/A
5:00 PM100 °FPassing clouds.9 mph10%29.77 "HgN/A
4:30 PM102 °FPassing clouds.7 mph10%29.77 "HgN/A
4:00 PM100 °FSunny.9 mph11%29.77 "Hg10 mi
3:30 PM99 °FSunny.7 mph12%29.80 "Hg10 mi
3:00 PM99 °FSunny.7 mph13%29.80 "Hg10 mi
2:30 PM99 °FSunny.5 mph13%29.83 "Hg10 mi
2:00 PM100 °FSunny.16 mph12%29.83 "Hg10 mi
1:30 PM97 °FSunny.12 mph13%29.83 "Hg10 mi
1:00 PM97 °FSunny.7 mph13%29.86 "Hg10 mi
12:30 PM93 °FSunny.No wind15%29.86 "Hg10 mi
12:00 PM93 °FSunny.5 mph15%29.86 "Hg10 mi
11:30 AM93 °FSunny.12 mph15%29.89 "Hg10 mi
11:00 AM91 °FSunny.9 mph15%29.89 "Hg10 mi
10:30 AM90 °FSunny.12 mph15%29.89 "Hg10 mi
10:00 AM88 °FClear.9 mph17%29.89 "Hg5 mi
9:30 AM86 °FClear.12 mph18%29.89 "Hg5 mi
8:30 AM81 °FHaze.5 mph26%29.89 "Hg3 mi
8:00 AM77 °FClear.7 mph28%29.89 "Hg5 mi
7:30 AM72 °FClear.5 mph36%29.89 "Hg5 mi
7:00 AM73 °FClear.5 mph33%29.86 "Hg10 mi
6:30 AM73 °FClear.9 mph36%29.86 "Hg10 mi
6:00 AM75 °FClear.9 mph36%29.86 "Hg10 mi
5:30 AM73 °FClear.7 mph36%29.86 "Hg10 mi
5:00 AM73 °FClear.5 mph36%29.86 "Hg10 mi
4:30 AM72 °FClear.7 mph41%29.83 "Hg4 mi
4:00 AM72 °FClear.5 mph41%29.83 "Hg10 mi
Weather by CustomWeather, © 2016

See weather overviewHow to use our weather pages